星链-31977 (STARLINK-31977 )

导读 | 豆包AI

STARLINK-31977是一颗由美国于2024年5月28日08:00发射的星链卫星,隶属于SpaceX公司的星链项目。该项目旨在构建全球卫星互联网星座,为全球偏远地区、海洋航行等场景提供高速互联网接入服务,这颗卫星加入后,进一步扩充了星链星座的在轨卫星规模,提升了星座的服务覆盖能力与网络稳定性。

基本信息
目录编号:
59892
目录名称:
STARLINK-31977
国际标识:
2024-100H
轨道中心:
EARTH
卫星名称:
星链-31977
卫星全名:
星链-31977 (STARLINK-31977 )
卫星状态:
在轨 (已飞行703 天)
发射日期:
2024-05-28 UTC
国别 :
美国 (US)
星等 :
--
轨道信息
数据来源 国际轨道数据 AOE轨道数据
星历时间 2026-04-30T21:28:55+0800
13小时前
查看轨道信息
2026-04-30T15:00:00+0800
20小时前
查看轨道信息
半长轴 6861.213km 6861.176km
偏心率 0.0001704 0.0001444
轨道倾角 43.005° 43.005°
近地点辐角 280.174° 279.680°
升交点赤经 185.222° 186.751°
平近点角 79.892° 33.400°
近地点 481.906km 482.048km
远地点 484.246km 484.03km
周期 94.267分钟 94.267分钟
每日圈数 15.275711 15.275835
详细信息
固有亮度:
5
最大亮度:
1.5
卫星平台:
Starlink v2.0 mini
覆盖范围:
全球
运营商:
太空探索技术公司
运营商所在国:
美国
制造商(研发单位):
太空探索技术公司
制造商所在国:
美国
使用方式:
暂无
卫星简介
星链(Starlink)计划是由太空探索技术公司(SpaceX)提出的一个巨型低轨卫星互联网星座项目,计划在2019年至2024年间在太空搭建由约1.2万颗卫星组成的“星链”网络,其中1584颗将部署在地球上空550千米处的近地轨道,并从2020年开始工作。该卫星仍在工作。
2D轨道图
3D轨道图
轨道高度分析图
轨道倾角分析图
轨道综合分析图
查看轨道综合分析图